SAVIL Weather Reports


time (UTC)temp
C
wind
direction
speed
KPH
gust
KPH
rain 1hr
cm
rain 24hr
cm
rain mn
cm
humidity
%
barometer
mb
20260506173047 7 289 4.8 8.0 0.00 0.00 0.00 44 1011.5
20260506171048 8 299 8.0 12.9 0.00 0.00 0.00 42 1011.4
20260506165047 8 309 9.7 17.7 0.00 0.00 0.00 41 1011.3
20260506163048 8 303 9.7 20.9 0.00 0.00 0.00 41 1011.0
20260506154719 8 321 14.5 27.4 0.00 0.00 0.00 40 1010.8
20260506150718 8 322 12.9 24.1 0.00 0.00 0.00 42 1010.6
20260506144718 8 328 16.1 27.4 0.00 0.00 0.00 40 1010.4
20260506142718 8 317 11.3 20.9 0.00 0.00 0.00 45 1010.4
20260506134718 8 305 14.5 27.4 0.00 0.00 0.00 35 1009.8
20260506132718 8 291 17.7 33.8 0.00 0.00 0.00 33 1009.6
20260506125046 9 307 11.3 24.1 0.00 0.00 0.00 34 1009.3
20260506123046 7 285 22.5 41.8 0.00 0.00 0.00 39 1009.4
20260506121047 8 276 12.9 30.6 0.00 0.00 0.00 31 1009.1
20260506115047 7 284 17.7 38.6 0.00 0.00 0.00 35 1009.1
20260506114718 8 259 14.5 37.0 0.00 0.00 0.00 32 1008.8
20260506112718 9 291 14.5 25.7 0.00 0.00 0.00 35 1008.7
20260506110718 8 272 19.3 33.8 0.00 0.00 0.00 32 1008.6
20260506104718 10 240 20.9 38.6 0.00 0.00 0.00 35 1008.2
20260506102718 8 287 17.7 30.6 0.00 0.00 0.00 36 1008.3
20260506100718 8 279 12.9 24.1 0.00 0.00 0.00 37 1007.9
20260506094718 7 279 12.9 22.5 0.00 0.00 0.00 40 1007.8
20260506092717 7 276 14.5 27.4 0.00 0.00 0.00 38 1007.6
20260506090717 7 260 16.1 29.0 0.00 0.00 0.00 41 1007.5
20260506084717 7 266 17.7 33.8 0.00 0.00 0.00 39 1007.2
20260506082717 7 262 19.3 41.8 0.00 0.00 0.00 40 1007.1
20260506080717 7 248 17.7 33.8 0.00 0.00 0.00 43 1006.8
20260506072717 6 272 17.7 33.8 0.00 0.08 0.00 46 1006.5
20260506070717 6 258 17.7 32.2 0.00 0.08 0.00 47 1006.4
20260506060717 5 254 17.7 30.6 0.00 0.10 0.00 51 1005.8
20260506050717 4 268 11.3 22.5 0.00 0.10 0.00 60 1005.4
20260506044717 3 253 11.3 20.9 0.00 0.10 0.00 63 1005.3
20260506042717 3 259 11.3 20.9 0.00 0.10 0.00 64 1005.2
20260506034716 3 253 9.7 16.1 0.00 0.10 0.00 66 1004.9
20260506032716 2 254 8.0 12.9 0.00 0.10 0.00 66 1004.7
20260506030716 2 247 8.0 14.5 0.00 0.10 0.00 67 1004.5
20260506024716 2 234 11.3 17.7 0.00 0.10 0.00 66 1004.3
20260506022716 2 247 8.0 12.9 0.00 0.10 0.00 67 1004.2
20260506020716 2 241 8.0 14.5 0.00 0.10 0.00 65 1004.1
20260506014716 2 253 9.7 17.7 0.00 0.10 0.00 62 1004.0
20260506012716 3 246 9.7 16.1 0.00 0.10 0.00 59 1003.7
20260506010716 3 255 11.3 20.9 0.00 0.10 0.00 58 1003.7
20260506004716 3 264 14.5 20.9 0.00 0.10 0.00 57 1003.6
20260506002716 3 258 9.7 17.7 0.00 0.10 0.00 57 1003.4
20260506000716 3 270 12.9 20.9 0.00 0.10 0.00 56 1003.3
20260505234716 3 272 12.9 22.5 0.00 0.10 0.00 55 1003.1
20260505232716 3 271 9.7 19.3 0.00 0.10 0.00 54 1003.1
20260505230716 4 269 11.3 20.9 0.00 0.10 0.00 52 1003.0
20260505224715 4 264 9.7 19.3 0.00 0.10 0.00 51 1003.0
20260505222715 4 255 9.7 17.7 0.00 0.10 0.00 50 1002.9
20260505220715 5 253 11.3 20.9 0.00 0.10 0.00 48 1002.8
20260505214715 5 258 11.3 20.9 0.00 0.10 0.00 47 1002.6
20260505212716 5 247 9.7 24.1 0.00 0.10 0.00 44 1002.4
20260505210715 5 231 9.7 16.1 0.00 0.10 0.00 44 1002.3
20260505204715 5 232 9.7 16.1 0.00 0.10 0.10 43 1002.2
20260505202715 5 230 9.7 16.1 0.00 0.10 0.10 42 1002.1
20260505200715 5 234 9.7 16.1 0.00 0.10 0.10 42 1002.0
20260505194715 6 248 9.7 17.7 0.00 0.10 0.10 40 1002.0
20260505192715 6 242 8.0 14.5 0.00 0.10 0.10 38 1001.9
20260505190715 6 250 8.0 12.9 0.00 0.10 0.10 38 1001.8
20260505184714 6 251 6.4 11.3 0.00 0.10 0.10 41 1001.7
20260505182714 7 272 9.7 14.5 0.00 0.10 0.10 37 1001.5
20260505180714 7 287 11.3 19.3 0.00 0.10 0.10 36 1001.4